This is the latest recevied weather packets stored in our database for station/object CW2401. If no packets are shown the sender has not sent any weather packets the latest 10 day(s).
| Time | Temp. | Humidity | Pressure | Rain* | Wind** | Luminosity | Snow |
|---|---|---|---|---|---|---|---|
| 1777237150 | 17.22° C | 76% | 1017.2 hPa | 0 mm | - | - | - |
| 1777237030 | 17.22° C | 75% | 1017.1 hPa | 0 mm | - | - | - |
| 1777236185 | 17.22° C | 76% | 1017 hPa | 0 mm | - | - | - |
| 1777235826 | 17.22° C | 77% | 1017 hPa | 0 mm | - | - | - |
| 1777235705 | 17.22° C | 74% | 1017 hPa | 0 mm | - | - | - |
| 1777234861 | 17.22° C | 77% | 1017 hPa | 0 mm | - | - | - |
| 1777234741 | 16.67° C | 76% | 1017 hPa | 0 mm | - | - | - |
| 1777234619 | 16.67° C | 77% | 1017 hPa | 0 mm | - | - | - |
| 1777234377 | 16.67° C | 76% | 1017 hPa | 0 mm | - | - | - |
| 1777233167 | 16.67° C | 76% | 1017.1 hPa | 0 mm | - | - | - |
| 1777232445 | 16.67° C | 77% | 1017.1 hPa | 0 mm | - | - | - |
| 1777232084 | 16.67° C | 79% | 1017.1 hPa | 0 mm | - | - | - |
| 1777231481 | 16.67° C | 78% | 1017.4 hPa | 0 mm | - | - | - |
| 1777231237 | 16.11° C | 81% | 1017.4 hPa | 0 mm | - | - | - |
| 1777230997 | 16.11° C | 82% | 1017.3 hPa | 0 mm | - | - | - |
| 1777229668 | 15.56° C | 82% | 1017.6 hPa | 0 mm | - | - | - |
| 1777229066 | 15.56° C | 81% | 1017.8 hPa | 0 mm | - | - | - |
| 1777228705 | 15.56° C | 82% | 1017.8 hPa | 0 mm | - | - | - |
| 1777228348 | 15.56° C | 82% | 1017.8 hPa | 0 mm | - | - | - |
| 1777228104 | 15.56° C | 82% | 1017.8 hPa | 0 mm | - | - | - |
| 1777226902 | 15.56° C | 85% | 1017.8 hPa | 0 mm | - | - | - |
| 1777226782 | 15.56° C | 85% | 1017.8 hPa | 0 mm | - | - | - |
| 1777226661 | 15.56° C | 84% | 1017.7 hPa | 0 mm | - | - | - |
| 1777225821 | 15.56° C | 83% | 1017.7 hPa | 0 mm | - | - | - |
| 1777225459 | 15.56° C | 82% | 1017.5 hPa | 0 mm | - | - | - |
* Rain latest hour (hover to see other rain measurements)
** Current wind speed in m/s (hover to see current wind gust speed)